TheGetRank SiteMap Page 7619
Home 7569 7570 7571 7572 7573 7574 7575 7576 7577 7578 7579 7580 7581 7582 7583 7584 7585 7586 7587 7588 7589 7590 7591 7592 7593 7594 7595 7596 7597 7598 7599 7600 7601 7602 7603 7604 7605 7606 7607 7608 7609 7610 7611 7612 7613 7614 7615 7616 7617 7618 7619 7620 7621 7622 7623 7624 7625 7626 7627 7628 7629 7630 7631 7632 7633 7634 7635 7636 7637 7638 7639 7640 7641 7642 7643 7644 7645 7646 7647 7648 7649 7650 7651 7652 7653 7654 7655 7656 7657 7658 7659 7660 7661 7662 7663 7664 7665 7666 7667 7668 7669
S.NO. Website Pagerank Alexa Rank Last Updated
7618000 halwasiyaschool.net 0 14051910 2012-02-17 03:41:44
7618001 store1.moneyveryfast.wordpress.com 0 10956832 2012-02-17 03:41:54
7618002 haplomics.com 0 No Rank 2012-02-17 03:42:01
7618003 haqandselvam.com 0 No Rank 2012-02-17 03:42:04
7618004 meiqin5168.allblogthai.com 0 62213 2012-02-17 03:42:09
7618005 hardwaystyle.com 0 No Rank 2012-02-17 03:42:12
7618006 harleydavidsonposters.com 0 No Rank 2012-02-17 03:42:22
7618007 hardwoodpalace.com 0 5733655 2012-02-17 03:42:23
7618008 harvestchurchiowa.com 0 No Rank 2012-02-17 03:42:31
7618009 games.squarehacks.com 0 No Rank 2012-02-17 03:42:31
7618010 haselwoodinn.ca 0 No Rank 2012-02-17 03:42:41
7618011 hawaiianartprints.com 0 No Rank 2012-02-17 03:42:43
7618012 hbbaoheng.com 0 12214734 2012-02-17 03:42:47
7618013 hbjdlj.com 0 9577783 2012-02-17 03:42:52
7618014 hbymdl.com 0 No Rank 2012-02-17 03:42:55
7618015 hddcctv.com 0 No Rank 2012-02-17 03:42:59
7618016 furniture-kayu.com 0 No Rank 2012-02-17 03:43:03
7618017 healthstaffing.org 0 No Rank 2012-02-17 03:43:19
7618018 hearstbia.ca 0 No Rank 2012-02-17 03:43:39
7618019 heartsavers-cpr.com 0 No Rank 2012-02-17 03:43:47
7618020 heathstyle.com 0 No Rank 2012-02-17 03:43:50
7618021 cavmen.home.moneyveryfast.wordpress.com 0 10956832 2012-02-17 03:44:03
7618022 ebusiness.ruthlessincome.com 0 16597 2012-02-17 03:44:22
7618023 hersheyhotel.net 0 No Rank 2012-02-17 03:44:29
7618024 hfs.hr 0 2207620 2012-02-17 03:44:32
7618025 post-classifieds.com 0 1020818 2012-02-17 03:44:49
7618026 luisgalarza.blogspot.com 0 596751 2012-02-17 03:44:55
7618027 higea.org 0 148717 2012-02-17 03:44:57
7618028 hiramatsutomoaki.name 0 No Rank 2012-02-17 03:45:05
7618029 forex.squarehacks.com 0 No Rank 2012-02-17 03:45:05
7618030 hjrequipment.com 0 14564141 2012-02-17 03:45:18
7618031 hllvd.com 0 8123319 2012-02-17 03:45:29
7618032 ho-stone.com 0 No Rank 2012-02-17 03:45:36
7618033 hobbitmovie.net 0 2834901 2012-02-17 03:45:37
7618034 hockeyalgeria.com 0 10915777 2012-02-17 03:45:40
7618035 mygreenscreekhomeplace.com 0 No Rank 2012-02-17 03:46:01
7618036 premium-account.pixarnews.com 0 403782 2012-02-17 03:46:05
7618037 homesickaussies.net 0 No Rank 2012-02-17 03:46:17
7618038 epicurvegan.com 0 8436747 2012-02-17 03:46:22
7618039 hometer.cn 0 No Rank 2012-02-17 03:46:23
7618040 honganfood.com 0 No Rank 2012-02-17 03:46:40
7618041 horseartists.com 0 No Rank 2012-02-17 03:46:51
7618042 hongtupv.com 0 No Rank 2012-02-17 03:46:55
7618043 hotcorneryoga.com 0 No Rank 2012-02-17 03:47:06
7618044 hotel-palace.jp 0 6761405 2012-02-17 03:47:09
7618045 hotelsinseattle.net 0 No Rank 2012-02-17 03:47:24
7618046 go2.moneyveryfast.wordpress.com 0 10956832 2012-02-17 03:47:25
7618047 hotelsovana.com 0 No Rank 2012-02-17 03:47:28
7618048 hotirondesign.com 0 No Rank 2012-02-17 03:47:32
7618049 houndjunkie.com 0 No Rank 2012-02-17 03:47:36
7618050 howtocreateyourreality.com 0 No Rank 2012-02-17 03:47:41
7618051 howtohauntyourhouse.com 0 5999552 2012-02-17 03:47:43
7618052 hr100.ru 0 1572150 2012-02-17 03:47:53
7618053 ccat.sas.upenn.edu 0 2795 2012-02-17 03:47:55
7618054 thedogsinthestreet.net 0 5541254 2012-02-17 03:48:05
7618055 huaxoo.com 0 5666852 2012-02-17 03:48:16
7618056 boredagainchrischan.com 0 No Rank 2012-02-17 03:48:16
7618057 hubig.us 0 No Rank 2012-02-17 03:48:17
7618058 hudaasfour.com 0 17683065 2012-02-17 03:48:20
7618059 hugeposters.com 0 8148588 2012-02-17 03:48:28
7618060 hufcor.com.my 0 No Rank 2012-02-17 03:48:30
7618061 huihuang-catalyst.com 0 No Rank 2012-02-17 03:48:37
7618062 hui-heng.cn 0 No Rank 2012-02-17 03:48:38
7618063 hyperviralincome.com 0 No Rank 2012-02-17 03:48:56
7618064 hzhhjy.com 0 No Rank 2012-02-17 03:49:06
7618065 hy-packing8.com 0 No Rank 2012-02-17 03:49:07
7618066 niki-museum.jp 0 3077603 2012-02-17 03:49:20
7618067 wow.sukan2review.blogspot.com 0 12559267 2012-02-17 03:49:27
7618068 nikkipreston.com.au 0 20467157 2012-02-17 03:49:31
7618069 stardoll.childrenforchildren.com 0 No Rank 2012-02-17 03:49:35
7618070 nld.nu 0 No Rank 2012-02-17 03:49:40
7618071 wrtc.jp 0 No Rank 2012-02-17 03:49:48
7618072 icebergnetworks.com 0 18327594 2012-02-17 03:49:54
7618073 nomtec.com 0 No Rank 2012-02-17 03:49:57
7618074 icole.jp 0 No Rank 2012-02-17 03:50:04
7618075 tovv.nl 0 No Rank 2012-02-17 03:50:06
7618076 noprescriptionworldpharmacy.com 0 No Rank 2012-02-17 03:50:07
7618077 idealclassesonline.com 0 10286104 2012-02-17 03:50:08
7618078 miix.jp 0 No Rank 2012-02-17 03:50:14
7618079 idtheftandfraud.com 0 No Rank 2012-02-17 03:50:21
7618080 ieinternational.ca 0 No Rank 2012-02-17 03:50:21
7618081 eeia.jp 0 No Rank 2012-02-17 03:50:23
7618082 ifastfwd.info 0 1142045 2012-02-17 03:50:25
7618083 ig.com.my 0 18263258 2012-02-17 03:50:31
7618084 asnt.jp 0 No Rank 2012-02-17 03:50:33
7618085 ihug.org 0 No Rank 2012-02-17 03:50:39
7618086 rcpp.net 0 No Rank 2012-02-17 03:50:41
7618087 ikdmanitoba.com 0 No Rank 2012-02-17 03:50:45
7618088 yu-m.net 0 No Rank 2012-02-17 03:51:06
7618089 e-sukan2review.blogspot.com 0 No Rank 2012-02-17 03:51:10
7618090 indiaethnicweek.com 0 No Rank 2012-02-17 03:51:15
7618091 vtlbv.nl 0 No Rank 2012-02-17 03:51:16
7618092 erickmoya.com 0 26158174 2012-02-17 03:51:22
7618093 ville.org.re 0 13483060 2012-02-17 03:51:24
7618094 mahru.net 0 No Rank 2012-02-17 03:51:30
7618095 indianapolismotels.net 0 No Rank 2012-02-17 03:51:35
7618096 iqnia.com 0 No Rank 2012-02-17 03:51:39
7618097 old.med.childrenforchildren.com 0 No Rank 2012-02-17 03:51:48
7618098 anodes.nl 0 No Rank 2012-02-17 03:51:50
7618099 hb-btw.nl 0 No Rank 2012-02-17 03:52:16
7618100 kammy3.jp 0 No Rank 2012-02-17 03:52:24
7618101 makys.net 0 No Rank 2012-02-17 03:52:25
7618102 inexpensiveart.com 0 5724829 2012-02-17 03:52:26
7618103 inktonerman.com 0 8756803 2012-02-17 03:52:36
7618104 dewonne.nl 0 No Rank 2012-02-17 03:52:45
7618105 harlequinsoftemptation.com 0 No Rank 2012-02-17 03:52:49
7618106 insockmonkeyslippers.com 0 1080470 2012-02-17 03:52:52
7618107 mk-web.org 0 No Rank 2012-02-17 03:52:54
7618108 idnsas.com 0 No Rank 2012-02-17 03:52:54
7618109 order-valtrex-online.org 0 No Rank 2012-02-17 03:52:56
7618110 helin1103.allblogthai.com 0 62213 2012-02-17 03:52:57
7618111 howtoremoveskintagsathome.com 0 No Rank 2012-02-17 03:53:03
7618112 inspirationalbibleverses.com 0 No Rank 2012-02-17 03:53:03
7618113 scottishjazzfederation.com 0 950077 2012-02-17 03:53:12
7618114 insurancereview.in 0 552645 2012-02-17 03:53:12
7618115 goldhammer.biz 0 1697277 2012-02-17 03:53:13
7618116 insworldwide.com 0 26439600 2012-02-17 03:53:15
7618117 growind.nl 0 No Rank 2012-02-17 03:53:19
7618118 koooraline.com 0 18662761 2012-02-17 03:53:30
7618119 fujimin.jp 0 No Rank 2012-02-17 03:53:30
7618120 cd.jpn.org 0 4329 2012-02-17 03:53:38
7618121 media.multikino.pl 0 23287 2012-02-17 03:53:43
7618122 dieseko.nl 0 1408487 2012-02-17 03:53:49
7618123 museummania.com 0 No Rank 2012-02-17 03:53:50
7618124 investorssource.ca 0 No Rank 2012-02-17 03:53:52
7618125 invision2u.net 0 No Rank 2012-02-17 03:53:57
7618126 pastaaldente.com 0 16867437 2012-02-17 03:53:58
7618127 gerrese.nl 0 No Rank 2012-02-17 03:54:03
7618128 norrahammar.com 0 No Rank 2012-02-17 03:54:04
7618129 iron-dragon.ca 0 24838595 2012-02-17 03:54:09
7618130 ipowerresources.com 0 No Rank 2012-02-17 03:54:13
7618131 euroweld.nl 0 No Rank 2012-02-17 03:54:13
7618132 dejager.com 0 12372287 2012-02-17 03:54:21
7618133 kuroame.com 0 No Rank 2012-02-17 03:54:30
7618134 isobelspringett.com 0 No Rank 2012-02-17 03:54:30
7618135 ganodermacoffee.ws 0 17463158 2012-02-17 03:54:38
7618136 isoplas.com.my 0 18714232 2012-02-17 03:54:40
7618137 italianwallart.com 0 15864077 2012-02-17 03:54:46
7618138 prorobot.ru 0 729103 2012-02-17 03:54:51
7618139 kosho-co.jp 0 3343544 2012-02-17 03:54:56
7618140 yabuchu.com 0 No Rank 2012-02-17 03:55:05
7618141 twitter-manager.net 0 1458608 2012-02-17 03:55:06
7618142 ivan-ph.jp 0 No Rank 2012-02-17 03:55:06
7618143 ivolga.com.ua 0 1430724 2012-02-17 03:55:11
7618144 unipaint.jp 0 No Rank 2012-02-17 03:55:13
7618145 ivoluntarios.org.br 0 2499675 2012-02-17 03:55:18
7618146 grosverf.nl 0 No Rank 2012-02-17 03:55:31
7618147 ixxe.cn 0 No Rank 2012-02-17 03:55:34
7618148 minecraftcrackedservers.info 0 No Rank 2012-02-17 03:55:34
7618149 ixxe.net 0 4257144 2012-02-17 03:55:38
7618150 izzyspopstarplan.com 0 No Rank 2012-02-17 03:55:46
7618151 jdejager.nl 0 No Rank 2012-02-17 03:55:47
7618152 jacobclasses.com 0 No Rank 2012-02-17 03:55:55
7618153 tetudou.org 0 No Rank 2012-02-17 03:56:02
7618154 jagplus.ca 0 25365804 2012-02-17 03:56:05
7618155 jaimeditation.com 0 No Rank 2012-02-17 03:56:07
7618156 max.waterwellpartner.org 0 No Rank 2012-02-17 03:56:07
7618157 bennobel.nl 0 No Rank 2012-02-17 03:56:10
7618158 activere.jp 0 No Rank 2012-02-17 03:56:15
7618159 jamesatebe.ca 0 No Rank 2012-02-17 03:56:15
7618160 charliesaysgo.com 0 No Rank 2012-02-17 03:56:16
7618161 prorover.ru 0 13703562 2012-02-17 03:56:24
7618162 jawatel.com 0 473623 2012-02-17 03:56:38
7618163 jaxfoxmedia.com 0 18564625 2012-02-17 03:56:41
7618164 jazz-art.com 0 3142951 2012-02-17 03:56:46
7618165 trentsevernsunrise.com 0 No Rank 2012-02-17 03:57:02
7618166 jdogs.org 0 No Rank 2012-02-17 03:57:03
7618167 jeanllewellyn.com 0 No Rank 2012-02-17 03:57:04
7618168 jeirichmondhill.com 0 No Rank 2012-02-17 03:57:15
7618169 recycal.net 0 No Rank 2012-02-17 03:57:24
7618170 myswtorlevelingguide.com 0 9713582 2012-02-17 03:57:27
7618171 jenniferlovehewittpictures.com 0 No Rank 2012-02-17 03:57:29
7618172 jeremy-miller.ca 0 12355923 2012-02-17 03:57:33
7618173 shattered.squarehacks.com 0 No Rank 2012-02-17 03:57:37
7618174 jerrysbaitandtackle.com 0 No Rank 2012-02-17 03:57:39
7618175 jeu-gonflable.com 0 9075386 2012-02-17 03:57:43
7618176 redtentradio.com 0 4089208 2012-02-17 03:57:46
7618177 hipentrendytuinmeubelen.nl 0 No Rank 2012-02-17 03:57:46
7618178 jhjx.net 0 7283373 2012-02-17 03:57:58
7618179 jihancerdablog.com 0 4439563 2012-02-17 03:58:00
7618180 jinfuyarn.com 0 No Rank 2012-02-17 03:58:04
7618181 id2.sukan2review.blogspot.com 0 12559267 2012-02-17 03:58:05
7618182 jinmassagetherapy.com 0 No Rank 2012-02-17 03:58:08
7618183 jixingdz.com 0 No Rank 2012-02-17 03:58:25
7618184 jishuo-smt.com 0 No Rank 2012-02-17 03:58:27
7618185 jjandfriendstt.com 0 22531185 2012-02-17 03:58:30
7618186 jjandsteph.com 0 No Rank 2012-02-17 03:58:35
7618187 jljtoy.com 0 No Rank 2012-02-17 03:59:04
7618188 saramarcuc.bloog.it 0 81579 2012-02-17 03:59:15
7618189 jmzfilms.com 0 No Rank 2012-02-17 03:59:19
7618190 jobwings.com 0 1208108 2012-02-17 03:59:21
7618191 rosewalllandscaping.com 0 No Rank 2012-02-17 03:59:38
7618192 dieseko.com 0 No Rank 2012-02-17 03:59:45
7618193 rebirthscorecard.org 0 11993720 2012-02-17 03:59:45
7618194 buiscar.com 0 17452280 2012-02-17 03:59:57
7618195 joyofsanskrit.com 0 No Rank 2012-02-17 03:59:59
7618196 joyou.com 0 7096878 2012-02-17 04:00:01
7618197 jpglasses.com 0 No Rank 2012-02-17 04:00:12
7618198 guiaingenieros.com 0 12826090 2012-02-17 04:00:15
7618199 deli-jack.nl 0 No Rank 2012-02-17 04:00:15
7618200 jqpco.com 0 No Rank 2012-02-17 04:00:24
7618201 russian.warbirdsresourcegroup.org 0 1031912 2012-02-17 04:00:30
7618202 jrtsoftware.ca 0 No Rank 2012-02-17 04:00:37
7618203 nakaidenki.co.jp 0 5524456 2012-02-17 04:00:43
7618204 technisol.nl 0 6271192 2012-02-17 04:01:03
7618205 jsyxgroup.com 0 No Rank 2012-02-17 04:01:14
7618206 judgename.com 0 15173705 2012-02-17 04:01:15
7618207 planen-wohnen.de 0 6926443 2012-02-17 04:01:17
7618208 juejue.com 0 No Rank 2012-02-17 04:01:21
7618209 moe-style.jp 0 No Rank 2012-02-17 04:01:27
7618210 recyclebucks.awrgreen.com 0 17572368 2012-02-17 04:01:28
7618211 juliotswell.com 0 4587189 2012-02-17 04:01:30
7618212 indexed.waterwellpartner.org 0 No Rank 2012-02-17 04:01:34
7618213 elastisol.nl 0 14903912 2012-02-17 04:01:38
7618214 justframedart.com 0 No Rank 2012-02-17 04:01:40
7618215 my-cisco-router.com 0 No Rank 2012-02-17 04:01:42
7618216 jvcomputerprogramming.com 0 No Rank 2012-02-17 04:01:43
7618217 semelle.org.re 0 13483060 2012-02-17 04:01:45
7618218 venturelogix.net 0 26461410 2012-02-17 04:01:57
7618219 anoordzij.nl 0 No Rank 2012-02-17 04:02:00
7618220 tu.moneyveryfast.wordpress.com 0 10956832 2012-02-17 04:02:01
7618221 omron.ccc-cn.net 0 No Rank 2012-02-17 04:02:03
7618222 kadeequalityproducts.com 0 18957690 2012-02-17 04:02:14
7618223 haantrans.nl 0 17412297 2012-02-17 04:02:14
7618224 nais.ccc-cn.net 0 No Rank 2012-02-17 04:02:15
7618225 divinehf.com 0 No Rank 2012-02-17 04:02:26
7618226 alienpigfarm.com 0 No Rank 2012-02-17 04:02:29
7618227 kanjiart.com 0 No Rank 2012-02-17 04:02:34
7618228 directory.sukan2review.blogspot.com.pk 0 No Rank 2012-02-17 04:02:36
7618229 triosport.nl 0 No Rank 2012-02-17 04:02:39
7618230 panasonic.japanfa.com 0 4165373 2012-02-17 04:02:39
7618231 intergun.com 0 No Rank 2012-02-17 04:02:56
7618232 paostyle.com 0 No Rank 2012-02-17 04:02:56
7618233 kaslochamber.com 0 11622597 2012-02-17 04:02:58
7618234 katemosspictures.com 0 No Rank 2012-02-17 04:03:02
7618235 katerigroup.com 0 No Rank 2012-02-17 04:03:04
7618236 omron.japanfa.com 0 4165373 2012-02-17 04:03:08
7618237 kathryndoherty.biz 0 No Rank 2012-02-17 04:03:14
7618238 johannesburg.serbamasak.blogspot.com 0 No Rank 2012-02-17 04:03:14
7618239 cuisinartdlc.vanquishx.com 0 30273 2012-02-17 04:03:18
7618240 plc-cable.5130cn.com 0 3328452 2012-02-17 04:03:19
7618241 katsuragiyuki.com 0 965311 2012-02-17 04:03:20
7618242 mcmasako.com 0 No Rank 2012-02-17 04:03:20
7618243 kaseihin.net 0 No Rank 2012-02-17 04:03:29
7618244 proface.japanfa.com 0 4165373 2012-02-17 04:03:30
7618245 keiftsifers.com 0 No Rank 2012-02-17 04:03:44
7618246 keioad.com 0 No Rank 2012-02-17 04:03:45
7618247 runzufang.513800.com 0 1520472 2012-02-17 04:03:46
7618248 rosemount-transmitter.com 0 9576022 2012-02-17 04:03:53
7618249 kellygolby.com 0 No Rank 2012-02-17 04:03:57
7618250 rtch.513800.com 0 1520472 2012-02-17 04:04:06
7618251 kenishaelectronics.com 0 No Rank 2012-02-17 04:04:15
7618252 mongolian-choppers.com 0 No Rank 2012-02-17 04:04:17
7618253 music-key.com 0 1740338 2012-02-17 04:04:28
7618254 kidpaintings.com 0 No Rank 2012-02-17 04:04:31
7618255 kibaru.com.my 0 No Rank 2012-02-17 04:04:33
7618256 dvd-cd.x0.com 0 5649 2012-02-17 04:04:43
7618257 ninokuni.game-k.com 0 316988 2012-02-17 04:04:44
7618258 odss-nagaragawa.jp 0 No Rank 2012-02-17 04:04:54
7618259 awservices.nl 0 No Rank 2012-02-17 04:04:55
7618260 apnatural.com 0 No Rank 2012-02-17 04:05:08
7618261 odss-norikura.jp 0 3362731 2012-02-17 04:05:09
7618262 orochi2.game-k.com 0 316988 2012-02-17 04:05:17
7618263 kingstreetplayers.com 0 No Rank 2012-02-17 04:05:19
7618264 impexstaal.nl 0 16694173 2012-02-17 04:05:21
7618265 kinmastore.com 0 3625097 2012-02-17 04:05:23
7618266 0769xs.com 0 9341333 2012-02-17 04:05:29
7618267 kareldekok.nl 0 No Rank 2012-02-17 04:05:35
7618268 prevision-create.com 0 No Rank 2012-02-17 04:05:41
7618269 kitchenposters.com 0 No Rank 2012-02-17 04:05:45
7618270 jmtrailers.nl 0 No Rank 2012-02-17 04:05:46
7618271 kittenposters.com 0 No Rank 2012-02-17 04:05:47
7618272 californiasunrise.info 0 No Rank 2012-02-17 04:05:48
7618273 klh.at 0 1587764 2012-02-17 04:05:53
7618274 klh5.com 0 1467777 2012-02-17 04:05:55
7618275 klhchomutov.cz 0 No Rank 2012-02-17 04:05:59
7618276 bbs.childrenforchildren.com 0 No Rank 2012-02-17 04:06:03
7618277 klphotographers.net 0 13089695 2012-02-17 04:06:05
7618278 prestamosbanconacionargentina.com 0 27110085 2012-02-17 04:06:06
7618279 kaisei-re.com 0 No Rank 2012-02-17 04:06:10
7618280 pmd.game-cap.com 0 3225783 2012-02-17 04:06:18
7618281 iweng.jpn.org 0 4329 2012-02-17 04:06:24
7618282 bcpa.co.uk 0 7602668 2012-02-17 04:06:26
7618283 kmjaroma.com 0 No Rank 2012-02-17 04:06:26
7618284 kniferepairs.ca 0 No Rank 2012-02-17 04:06:28
7618285 patelnia.lezajsk.pl 0 220253 2012-02-17 04:06:30
7618286 pokemon-kingin.game-k.com 0 316988 2012-02-17 04:06:30
7618287 koinu.tv 0 No Rank 2012-02-17 04:06:33
7618288 mightylib.eventoscrisal.com 0 24816355 2012-02-17 04:06:35
7618289 selfstudy.biz 0 No Rank 2012-02-17 04:06:37
7618290 pokemon-platinum.game-k.com 0 316988 2012-02-17 04:06:44
7618291 adeque.com 0 4357726 2012-02-17 04:06:47
7618292 shock.jpn.org 0 4329 2012-02-17 04:06:50
7618293 psp.game-cap.com 0 3225783 2012-02-17 04:06:59
7618294 kpcopper.com 0 No Rank 2012-02-17 04:07:02
7618295 ptsd.name 0 No Rank 2012-02-17 04:07:11
7618296 kreditnicenter.si 0 No Rank 2012-02-17 04:07:13
7618297 kriti.net 0 11437433 2012-02-17 04:07:16
7618298 monk-contract.co.uk 0 No Rank 2012-02-17 04:07:22
7618299 krystalinkz.com 0 12254633 2012-02-17 04:07:23
7618300 woody-life.net 0 No Rank 2012-02-17 04:07:25
7618301 msoakesltd.co.uk 0 No Rank 2012-02-17 04:07:31
7618302 kuechen-vision.de 0 16176583 2012-02-17 04:07:43
7618303 montserratvolcano.org 0 16130062 2012-02-17 04:07:44
7618304 akashishoji.jp 0 No Rank 2012-02-17 04:07:50
7618305 kunhikannanjewellery.com 0 No Rank 2012-02-17 04:07:51
7618306 musicandmessage.org.uk 0 No Rank 2012-02-17 04:07:55
7618307 mashstudio.com 0 25709481 2012-02-17 04:08:00
7618308 kwr.com.my 0 No Rank 2012-02-17 04:08:01
7618309 spolang.com 0 13597411 2012-02-17 04:08:10
7618310 debaanhoeve.nl 0 No Rank 2012-02-17 04:08:15
7618311 ladderupinc.com 0 10611214 2012-02-17 04:08:16
7618312 ralise-beauty.com 0 No Rank 2012-02-17 04:08:20
7618313 lafayettelouisianahotels.com 0 No Rank 2012-02-17 04:08:22
7618314 lafeefourchette.ca 0 No Rank 2012-02-17 04:08:23
7618315 gamerslife.org 0 No Rank 2012-02-17 04:08:25
7618316 lafondationjma.org 0 No Rank 2012-02-17 04:08:27
7618317 reiton2.game-k.com 0 316988 2012-02-17 04:08:31
7618318 lakecolby.org 0 17048558 2012-02-17 04:08:36
7618319 inhale-web.com 0 5980677 2012-02-17 04:08:37
7618320 lakelandanimalclinic.com 0 No Rank 2012-02-17 04:08:38
7618321 nhacviet.childrenforchildren.com 0 No Rank 2012-02-17 04:08:42
7618322 reiton.game-k.com 0 316988 2012-02-17 04:08:43
7618323 lakestreetpress.com 0 No Rank 2012-02-17 04:08:48
7618324 donguri.asnt.jp 0 No Rank 2012-02-17 04:08:51
7618325 lakewaterfrontlots.net 0 No Rank 2012-02-17 04:08:55
7618326 rex-bs.com 0 No Rank 2012-02-17 04:08:56
7618327 laketomountain.com 0 No Rank 2012-02-17 04:08:59
7618328 landscapeposters.com 0 No Rank 2012-02-17 04:09:07
7618329 newharvestchristianfellowship.org.uk 0 No Rank 2012-02-17 04:09:08
7618330 lphoto.ru 0 No Rank 2012-02-17 04:09:14
7618331 reikan-aine.com 0 5468328 2012-02-17 04:09:16
7618332 langkawiholidays.com.my 0 No Rank 2012-02-17 04:09:16
7618333 newventure.org.uk 0 3601904 2012-02-17 04:09:20
7618334 newyorkers.livejournal.com 0 104 2012-02-17 04:09:21
7618335 largepaintings.com 0 13047050 2012-02-17 04:09:23
7618336 aiai-market.com 0 No Rank 2012-02-17 04:09:27
7618337 point.moneyveryfast.wordpress.com 0 10956832 2012-02-17 04:09:29
7618338 akbayir.boschservis.in 0 No Rank 2012-02-17 04:09:29
7618339 oneleggedjockey.co.uk 0 25311813 2012-02-17 04:09:33
7618340 lascommessasportiva.it 0 1416034 2012-02-17 04:09:34
7618341 laservision-eyesurgery.com 0 No Rank 2012-02-17 04:09:42
7618342 meribellablog.com 0 20409086 2012-02-17 04:09:45
7618343 orgchartcomponent.com 0 2520183 2012-02-17 04:09:46
7618344 lausautogroup.com 0 4889965 2012-02-17 04:09:50
7618345 budget-parts.nl 0 5708931 2012-02-17 04:09:56
7618346 parkview-ifa.co.uk 0 No Rank 2012-02-17 04:10:01
7618347 tadaokajinja.jp 0 No Rank 2012-02-17 04:10:07
7618348 lawcorridor.com 0 897499 2012-02-17 04:10:08
7618349 paulrichardsltd.co.uk 0 No Rank 2012-02-17 04:10:10
7618350 laydev.de 0 1133775 2012-02-17 04:10:15
7618351 laydex.com 0 19475094 2012-02-17 04:10:15
7618352 acousticshop.eu 0 No Rank 2012-02-17 04:10:18
7618353 talamhireland.com 0 3776127 2012-02-17 04:10:20
7618354 peaklaminatesupplies.co.uk 0 No Rank 2012-02-17 04:10:21
7618355 leadershift.biz 0 No Rank 2012-02-17 04:10:28
7618356 pleasure-island-tickets.com 0 17059177 2012-02-17 04:10:34
7618357 rolltrailers.nl 0 No Rank 2012-02-17 04:10:41
7618358 postviralfatigue.me.uk 0 1855961 2012-02-17 04:10:46
7618359 newvideogamesv.com 0 No Rank 2012-02-17 04:10:47
7618360 learntodostuff.org 0 No Rank 2012-02-17 04:10:47
7618361 learnstockmarket.org 0 8849295 2012-02-17 04:10:47
7618362 lechantexotique.ca 0 No Rank 2012-02-17 04:10:52
7618363 pmahelston.co.uk 0 No Rank 2012-02-17 04:10:57
7618364 leclefs.com 0 No Rank 2012-02-17 04:11:00
7618365 price-limit.com 0 No Rank 2012-02-17 04:11:04
7618366 preenhairandmakeup.co.uk 0 No Rank 2012-02-17 04:11:09
7618367 kuji-yukari.com 0 No Rank 2012-02-17 04:11:18
7618368 procharter.co.uk 0 No Rank 2012-02-17 04:11:24
7618369 beamerplanet.be 0 No Rank 2012-02-17 04:11:30
7618370 reachinternational.com 0 2519642 2012-02-17 04:11:35
7618371 lesbicycologues.org 0 13557377 2012-02-17 04:11:50
7618372 rebekahmcvitie.com 0 No Rank 2012-02-17 04:11:50
7618373 lesdouxcactus.com 0 No Rank 2012-02-17 04:11:56
7618374 lesdelices.com 0 12101823 2012-02-17 04:11:56
7618375 pumpwell.co.uk 0 No Rank 2012-02-17 04:12:03
7618376 lespieuxvissesfrancoisbernier.com 0 No Rank 2012-02-17 04:12:05
7618377 abutilon349.net 0 No Rank 2012-02-17 04:12:06
7618378 c-bird.co.jp 0 No Rank 2012-02-17 04:12:06
7618379 prinsenploes.nl 0 No Rank 2012-02-17 04:12:07
7618380 zeromemory.info 0 1436141 2012-02-17 04:12:11
7618381 lestari.com.my 0 No Rank 2012-02-17 04:12:15
7618382 cali-market.com 0 No Rank 2012-02-17 04:12:17
7618383 gekifuji.skr.jp 0 13169 2012-02-17 04:12:18
7618384 thuisbioscoop.nl 0 9506387 2012-02-17 04:12:19
7618385 galaxy-blast.com 0 No Rank 2012-02-17 04:12:19
7618386 rady.e-trader.ro 0 19917803 2012-02-17 04:12:21
7618387 lgsb.ca 0 No Rank 2012-02-17 04:12:21
7618388 dcengineering.nl 0 No Rank 2012-02-17 04:12:23
7618389 tayorininaru.com 0 No Rank 2012-02-17 04:12:25
7618390 cocc.e-trader.ro 0 19917803 2012-02-17 04:12:25
7618391 redpointclimbingcentre.co.uk 0 7633177 2012-02-17 04:12:26
7618392 commission-central.waterwellpartner.org 0 No Rank 2012-02-17 04:12:27
7618393 cosmetictime.biz 0 No Rank 2012-02-17 04:12:28
7618394 swiftcaravans.nl 0 No Rank 2012-02-17 04:12:29
7618395 keka.e-trader.ro 0 19917803 2012-02-17 04:12:29
7618396 izumigroup.co.jp 0 No Rank 2012-02-17 04:12:32
7618397 s53.sakura.ne.jp 0 380 2012-02-17 04:12:33
7618398 hotel-linnen.com 0 No Rank 2012-02-17 04:12:33
7618399 reinvigoration.com 0 6478004 2012-02-17 04:12:36
7618400 prorobotu.net.ua 0 4112650 2012-02-17 04:12:38
7618401 proroliki.com.ua 0 3364342 2012-02-17 04:12:40
7618402 ligonierhometour.org 0 No Rank 2012-02-17 04:12:42
7618403 liviu.e-trader.ro 0 19917803 2012-02-17 04:12:43
7618404 autoinrichting.nl 0 No Rank 2012-02-17 04:12:44
7618405 scheepstextiel.nl 0 No Rank 2012-02-17 04:12:46
7618406 limitededitionartprints.com 0 No Rank 2012-02-17 04:12:47
7618407 simco.e-trader.ro 0 19917803 2012-02-17 04:12:48
7618408 redlionaxford.com 0 21645925 2012-02-17 04:12:49
7618409 laisser-faire.com 0 No Rank 2012-02-17 04:12:49
7618410 lionheartstudio.ca 0 No Rank 2012-02-17 04:12:49
7618411 birdsnestindia.nl 0 No Rank 2012-02-17 04:12:51
7618412 hakuseisya929.com 0 No Rank 2012-02-17 04:12:52
7618413 d.zeromemory.info 0 1436141 2012-02-17 04:12:52
7618414 akazame-oyaji.com 0 5391887 2012-02-17 04:12:54
7618415 obata.sakura.ne.jp 0 380 2012-02-17 04:12:55
7618416 pve-equipment.com 0 12484036 2012-02-17 04:12:56
7618417 vdberg-partners.nl 0 No Rank 2012-02-17 04:12:58
7618418 vanhoorneevents.nl 0 15408667 2012-02-17 04:12:59
7618419 akoestiekwinkel.nl 0 1356141 2012-02-17 04:13:00
7618420 job7.sukan2review.blogspot.com 0 12559267 2012-02-17 04:13:00
7618421 responsecare.org.uk 0 No Rank 2012-02-17 04:13:00
7618422 connectcollect.net 0 No Rank 2012-02-17 04:13:01
7618423 cibolahospital.com 0 21105549 2012-02-17 04:13:02
7618424 akiba-shokai.co.jp 0 5312440 2012-02-17 04:13:04
7618425 andrei.e-trader.ro 0 19917803 2012-02-17 04:13:06
7618426 zefai.sakura.ne.jp 0 380 2012-02-17 04:13:06
7618427 littleton-plumbing.com 0 No Rank 2012-02-17 04:13:07
7618428 mk-web.web-min.org 0 No Rank 2012-02-17 04:13:09
7618429 bogaxa.e-trader.ro 0 19917803 2012-02-17 04:13:09
7618430 genesisdynamics.jp 0 No Rank 2012-02-17 04:13:11
7618431 livelyartsentertainment.com 0 No Rank 2012-02-17 04:13:12
7618432 remcar.e-trader.ro 0 19917803 2012-02-17 04:13:14
7618433 samaayoga.blogfa.com 0 No Rank 2012-02-17 04:13:15
7618434 houtentimmerwerk.nl 0 No Rank 2012-02-17 04:13:16
7618435 bloklandnonferro.nl 0 No Rank 2012-02-17 04:13:17
7618436 isolatiewaarborg.nl 0 No Rank 2012-02-17 04:13:19
7618437 robsylv.e-trader.ro 0 19917803 2012-02-17 04:13:19
7618438 mightylib.squarehacks.com 0 No Rank 2012-02-17 04:13:21
7618439 beamers-magazine.nl 0 No Rank 2012-02-17 04:13:22
7618440 donprod.e-trader.ro 0 19917803 2012-02-17 04:13:23
7618441 miyuki.sumomo.ne.jp 0 229918 2012-02-17 04:13:24
7618442 biocyte.e-trader.ro 0 19917803 2012-02-17 04:13:25
7618443 casteleijnbakker.nl 0 No Rank 2012-02-17 04:13:29
7618444 stabila.e-trader.ro 0 19917803 2012-02-17 04:13:29
7618445 metacop.e-trader.ro 0 19917803 2012-02-17 04:13:29
7618446 nicnic.sakura.ne.jp 0 380 2012-02-17 04:13:31
7618447 informalcapital.net 0 6269000 2012-02-17 04:13:34
7618448 kinetech.e-trader.ro 0 19917803 2012-02-17 04:13:34
7618449 tadaoka.sakura.ne.jp 0 380 2012-02-17 04:13:35
7618450 ixlp.dayandai.com 0 No Rank 2012-02-17 04:13:36
7618451 acbrioolreiniging.nl 0 No Rank 2012-02-17 04:13:37
7618452 waterpipe-net.org.tw 0 10427380 2012-02-17 04:13:37
7618453 isoneft.sakura.ne.jp 0 380 2012-02-17 04:13:40
7618454 kooiman-zonwering.nl 0 No Rank 2012-02-17 04:13:42
7618455 kamsalon.e-trader.ro 0 19917803 2012-02-17 04:13:45
7618456 sunstylezonwering.nl 0 No Rank 2012-02-17 04:13:46
7618457 goldyrom.e-trader.ro 0 19917803 2012-02-17 04:13:47
7618458 loghomecaulkingandchinking.com 0 No Rank 2012-02-17 04:13:48
7618459 riverhousebackpackers.com 0 3110889 2012-02-17 04:13:49
7618460 joboloct.e-trader.ro 0 19917803 2012-02-17 04:13:50
7618461 macarale.e-trader.ro 0 19917803 2012-02-17 04:13:51
7618462 drumalex.e-trader.ro 0 19917803 2012-02-17 04:13:52
7618463 trefwoorddigitaal.nl 0 No Rank 2012-02-17 04:13:52
7618464 cthesias.e-trader.ro 0 19917803 2012-02-17 04:13:54
7618465 neferoase.e-trader.ro 0 19917803 2012-02-17 04:13:55
7618466 londonprofessionals.ca 0 No Rank 2012-02-17 04:13:58
7618467 blog.fieldrambler.net 0 No Rank 2012-02-17 04:13:58
7618468 study.aiai-market.com 0 No Rank 2012-02-17 04:13:59
7618469 caravelaircaravans.nl 0 No Rank 2012-02-17 04:13:59
7618470 sunstyle-zonwering.nl 0 No Rank 2012-02-17 04:14:00
7618471 cosme.aiai-market.com 0 No Rank 2012-02-17 04:14:01
7618472 olivermor.e-trader.ro 0 19917803 2012-02-17 04:14:01
7618473 ecobiotic.e-trader.ro 0 19917803 2012-02-17 04:14:02
7618474 zorgbureaudepuzzel.nl 0 No Rank 2012-02-17 04:14:04
7618475 dekinderslaapkamer.nl 0 No Rank 2012-02-17 04:14:05
7618476 luncani19.e-trader.ro 0 19917803 2012-02-17 04:14:06
7618477 metal-nef.e-trader.ro 0 19917803 2012-02-17 04:14:09
7618478 lornasdancecollective.com 0 13942623 2012-02-17 04:14:12
7618479 cazarebran.e-trader.ro 0 19917803 2012-02-17 04:14:12
7618480 balansoare.e-trader.ro 0 19917803 2012-02-17 04:14:14
7618481 deltahoist.e-trader.ro 0 19917803 2012-02-17 04:14:14
7618482 iida-miho.sakura.ne.jp 0 380 2012-02-17 04:14:18
7618483 mitalnav27.e-trader.ro 0 19917803 2012-02-17 04:14:18
7618484 webmail.pcpo-trivia.nl 0 No Rank 2012-02-17 04:14:19
7618485 macrameuri.e-trader.ro 0 19917803 2012-02-17 04:14:20
7618486 aquaproiect.e-trader.ro 0 19917803 2012-02-17 04:14:21
7618487 hoogesteger-boerman.nl 0 No Rank 2012-02-17 04:14:22
7618488 malmo-impex.e-trader.ro 0 19917803 2012-02-17 04:14:22
7618489 rovaromania.e-trader.ro 0 19917803 2012-02-17 04:14:24
7618490 jetstream-motorsport.nl 0 No Rank 2012-02-17 04:14:26
7618491 dejongscheepsmotoren.nl 0 No Rank 2012-02-17 04:14:28
7618492 danicoprest.e-trader.ro 0 19917803 2012-02-17 04:14:28
7618493 theunissentuinhuisjes.nl 0 9071144 2012-02-17 04:14:29
7618494 vandrielinstallateurs.nl 0 No Rank 2012-02-17 04:14:32
7618495 wakatebosai.sakura.ne.jp 0 380 2012-02-17 04:14:32
7618496 soundmanager.e-trader.ro 0 19917803 2012-02-17 04:14:33
7618497 nanakusadou.sakura.ne.jp 0 380 2012-02-17 04:14:34
7618498 tokyosuburbanparadise.jp 0 No Rank 2012-02-17 04:14:37
7618499 friesianhorsestables.com 0 No Rank 2012-02-17 04:14:38
7618500 uniquevloerverwarming.nl 0 17697316 2012-02-17 04:14:38
7618501 megacipsistem.e-trader.ro 0 19917803 2012-02-17 04:14:38
7618502 newenglandrecreation.com 0 No Rank 2012-02-17 04:14:38
7618503 romradiatoare.e-trader.ro 0 19917803 2012-02-17 04:14:39
7618504 lp-fitness.com 0 16588891 2012-02-17 04:14:41
7618505 merfordklimaattechniek.nl 0 No Rank 2012-02-17 04:14:42
7618506 lsitechnologie.com 0 No Rank 2012-02-17 04:14:42
7618507 magazinalarme.e-trader.ro 0 19917803 2012-02-17 04:14:42
7618508 sup-redstone.sakura.ne.jp 0 380 2012-02-17 04:14:44
7618509 oranjenassauschool-veen.nl 0 16946718 2012-02-17 04:14:46
7618510 van-dreumel-metaalwerken.nl 0 No Rank 2012-02-17 04:14:49
7618511 theunissen-tuinartikelen.nl 0 No Rank 2012-02-17 04:14:50
7618512 mediaxmanagement.e-trader.ro 0 19917803 2012-02-17 04:14:51
7618513 aannemingsbedrijf-dejager.nl 0 No Rank 2012-02-17 04:14:52
7618514 luckysign.cn 0 No Rank 2012-02-17 04:14:52
7618515 theunissen-houtmaterialen.nl 0 No Rank 2012-02-17 04:14:53
7618516 vimetcoextrusion.e-trader.ro 0 19917803 2012-02-17 04:14:55
7618517 schipholt-vloerverwarming.nl 0 12492848 2012-02-17 04:14:55
7618518 teambuildingbran.e-trader.ro 0 19917803 2012-02-17 04:14:56
7618519 craciun-la-munte.e-trader.ro 0 19917803 2012-02-17 04:14:58
7618520 installatiebedrijf-toonen.nl 0 10520144 2012-02-17 04:15:00
7618521 marmurapantelimon.e-trader.ro 0 19917803 2012-02-17 04:15:00
7618522 mrgstainlessgroup.e-trader.ro 0 19917803 2012-02-17 04:15:01
7618523 okazaki-f.s50.xrea.com 0 1927 2012-02-17 04:15:01
7618524 imbracamintecopii.e-trader.ro 0 19917803 2012-02-17 04:15:04
7618525 triumf-imobiliare.e-trader.ro 0 19917803 2012-02-17 04:15:05
7618526 luxxurylivving.com 0 1752341 2012-02-17 04:15:08
7618527 masamune.tokyosuburbanparadise.jp 0 No Rank 2012-02-17 04:15:11
7618528 cazarepensiunebranbelvedere.e-trader.ro 0 19917803 2012-02-17 04:15:16
7618529 v6.se 0 13539307 2012-02-17 04:15:19
7618530 dup.dk 0 No Rank 2012-02-17 04:15:19
7618531 kbg.in 0 18573501 2012-02-17 04:15:20
7618532 mxl.dk 0 No Rank 2012-02-17 04:15:21
7618533 viet.dk 0 6424750 2012-02-17 04:15:22
7618534 dbrt.dk 0 No Rank 2012-02-17 04:15:23
7618535 imgh.us 0 1372825 2012-02-17 04:15:24
7618536 lwaw.ca 0 No Rank 2012-02-17 04:15:25
7618537 w2ru.net 0 No Rank 2012-02-17 04:15:26
7618538 jero.net 0 2836997 2012-02-17 04:15:27
7618539 evco.dk 0 No Rank 2012-02-17 04:15:28
7618540 lcglad.dk 0 No Rank 2012-02-17 04:15:28
7618541 osullivanlakeoutfitters.com 0 22777035 2012-02-17 04:15:29
7618542 fhara.net 0 No Rank 2012-02-17 04:15:29
7618543 haxdam.dk 0 No Rank 2012-02-17 04:15:30
7618544 fange.com 0 No Rank 2012-02-17 04:15:31
7618545 nexua.org 0 796029 2012-02-17 04:15:31
7618546 nyttag.dk 0 25901032 2012-02-17 04:15:32
7618547 voxpop.dk 0 No Rank 2012-02-17 04:15:35
7618548 lysbo.com 0 No Rank 2012-02-17 04:15:36
7618549 maituk.dk 0 No Rank 2012-02-17 04:15:37
7618550 seerup.dk 0 No Rank 2012-02-17 04:15:38
7618551 prolog.dk 0 15968871 2012-02-17 04:15:39
7618552 dst-as.dk 0 No Rank 2012-02-17 04:15:40
7618553 hjulex.se 0 26770197 2012-02-17 04:15:42
7618554 fanky.net 0 No Rank 2012-02-17 04:15:42
7618555 all4me.dk 0 No Rank 2012-02-17 04:15:42
7618556 thedru.com 0 No Rank 2012-02-17 04:15:43
7618557 maderaworx.ca 0 No Rank 2012-02-17 04:15:44
7618558 b-biler.dk 0 No Rank 2012-02-17 04:15:45
7618559 theunissen-speeltoestellen.nl 0 12402510 2012-02-17 04:15:45
7618560 mwmorch.dk 0 7720782 2012-02-17 04:15:47
7618561 bigfish.dk 0 No Rank 2012-02-17 04:15:47
7618562 h-dark.net 0 No Rank 2012-02-17 04:15:48
7618563 luegle.com 0 18849592 2012-02-17 04:15:49
7618564 hgx.com.br 0 No Rank 2012-02-17 04:15:50
7618565 schantz.dk 0 No Rank 2012-02-17 04:15:52
7618566 ryalls.com 0 No Rank 2012-02-17 04:15:52
7618567 troniks.me 0 No Rank 2012-02-17 04:15:53
7618568 price.serbamasak.blogspot.com 0 No Rank 2012-02-17 04:15:55
7618569 arkreo.com 0 No Rank 2012-02-17 04:15:56
7618570 psmusik.dk 0 No Rank 2012-02-17 04:15:59
7618571 aijou4.com 0 No Rank 2012-02-17 04:15:59
7618572 magnoliadatashare.org 0 No Rank 2012-02-17 04:16:00
7618573 bcfolk.com 0 No Rank 2012-02-17 04:16:01
7618574 sosunyk.dk 0 No Rank 2012-02-17 04:16:01
7618575 magpetroleumgas-norabe.com 0 No Rank 2012-02-17 04:16:02
7618576 ujc.org.br 0 8873590 2012-02-17 04:16:03
7618577 actor.waterwellpartner.org 0 No Rank 2012-02-17 04:16:03
7618578 lilholm.dk 0 No Rank 2012-02-17 04:16:04
7618579 h2m.com.br 0 16415573 2012-02-17 04:16:04
7618580 dst.com.br 0 504949 2012-02-17 04:16:06
7618581 mooncap.com 0 23121915 2012-02-17 04:16:08
7618582 ameylai.com 0 No Rank 2012-02-17 04:16:15
7618583 boby.com.br 0 14421943 2012-02-17 04:16:19
7618584 mppr.com.br 0 No Rank 2012-02-17 04:16:19
7618585 mikedebo.ca 0 22393928 2012-02-17 04:16:20
7618586 lbgxedu.com 0 No Rank 2012-02-17 04:16:22
7618587 newalfa.net 0 22191386 2012-02-17 04:16:22
7618588 making-million-secret.com 0 No Rank 2012-02-17 04:16:25
7618589 ebeo.com.br 0 No Rank 2012-02-17 04:16:25
7618590 laserbor.dk 0 No Rank 2012-02-17 04:16:25
7618591 djdseid.com 0 No Rank 2012-02-17 04:16:27
7618592 flaurel.com 0 No Rank 2012-02-17 04:16:28
7618593 oresunds.dk 0 No Rank 2012-02-17 04:16:33
7618594 danplate.dk 0 No Rank 2012-02-17 04:16:33
7618595 ecc-orp.com 0 No Rank 2012-02-17 04:16:35
7618596 malkris.com.my 0 No Rank 2012-02-17 04:16:37
7618597 thevid9.com 0 No Rank 2012-02-17 04:16:38
7618598 islevvvs.dk 0 No Rank 2012-02-17 04:16:39
7618599 artkaden.dk 0 No Rank 2012-02-17 04:16:41
7618600 nexabit.com 0 No Rank 2012-02-17 04:16:41
7618601 pokerzero.com 0 No Rank 2012-02-17 04:16:41
7618602 docgraf.com 0 No Rank 2012-02-17 04:16:44
7618603 epopdev.com 0 11637171 2012-02-17 04:16:44
7618604 skals-el.dk 0 No Rank 2012-02-17 04:16:48
7618605 sdgellc.com 0 No Rank 2012-02-17 04:16:48
7618606 tfw-2007.de 0 No Rank 2012-02-17 04:16:48
7618607 unigroup.dk 0 7530792 2012-02-17 04:16:50
7618608 tkrec.ac.in 0 1557491 2012-02-17 04:16:50
7618609 rmh-vermont.org 0 No Rank 2012-02-17 04:16:52
7618610 iaud.com.br 0 No Rank 2012-02-17 04:16:52
7618611 ht-taars.dk 0 No Rank 2012-02-17 04:16:53
7618612 restwed.com 0 5810353 2012-02-17 04:16:54
7618613 mayacyc.com 0 No Rank 2012-02-17 04:16:56
7618614 pv-tools.de 0 No Rank 2012-02-17 04:16:57
7618615 tinntdn.com 0 No Rank 2012-02-17 04:16:58
7618616 vinnage.com 0 No Rank 2012-02-17 04:16:58
7618617 blit.com.br 0 No Rank 2012-02-17 04:17:01
7618618 fahnpwa.org 0 No Rank 2012-02-17 04:17:01
7618619 snecashi.org 0 No Rank 2012-02-17 04:17:03
7618620 greenvent.dk 0 No Rank 2012-02-17 04:17:04
7618621 marilynmonroeart.com 0 No Rank 2012-02-17 04:17:04
7618622 vincella.com 0 No Rank 2012-02-17 04:17:05
7618623 jtadental.dk 0 No Rank 2012-02-17 04:17:07
7618624 freesssh.com 0 16221462 2012-02-17 04:17:09
7618625 marilynmonroepictures.com 0 14683251 2012-02-17 04:17:09
7618626 acer-a5250-0450.blogspot.com 0 No Rank 2012-02-17 04:17:13
7618627 ennovator.dk 0 No Rank 2012-02-17 04:17:14
7618628 geluz.org.br 0 No Rank 2012-02-17 04:17:16
7618629 kappatdx.com 0 No Rank 2012-02-17 04:17:17
7618630 gn.nexua.org 0 796029 2012-02-17 04:17:17
7618631 includem.org 0 23010056 2012-02-17 04:17:19
7618632 westac.co.uk 0 489216 2012-02-17 04:17:19
7618633 depptown.com 0 No Rank 2012-02-17 04:17:21
7618634 steilwand.de 0 24641210 2012-02-17 04:17:22
7618635 luice.com.mx 0 No Rank 2012-02-17 04:17:23
7618636 mrgaynor.com 0 No Rank 2012-02-17 04:17:23
7618637 iranrose.com 0 No Rank 2012-02-17 04:17:26
7618638 abernyte.org 0 No Rank 2012-02-17 04:17:27
7618639 rodkhleif.us 0 No Rank 2012-02-17 04:17:27
7618640 reefdeep.org 0 No Rank 2012-02-17 04:17:29
7618641 pharm1t4.com 0 No Rank 2012-02-17 04:17:29
7618642 bmrgroup.net 0 11850763 2012-02-17 04:17:29
7618643 elromo.co.uk 0 23447756 2012-02-17 04:17:31
7618644 pjcraigs.com 0 No Rank 2012-02-17 04:17:32
7618645 24perday.com 0 12199199 2012-02-17 04:17:33
7618646 dyhrhagen.dk 0 21929158 2012-02-17 04:17:34
7618647 robinsgardendesign.co.uk 0 No Rank 2012-02-17 04:17:34
7618648 niccolls.org 0 No Rank 2012-02-17 04:17:36
7618649 maryclaireschaeffer.com 0 No Rank 2012-02-17 04:17:36
7618650 abavsnba.com 0 No Rank 2012-02-17 04:17:37
7618651 3dtvinfo.net 0 No Rank 2012-02-17 04:17:38
7618652 archwerk.org 0 9011800 2012-02-17 04:17:40
7618653 patrasket.dk 0 No Rank 2012-02-17 04:17:41
7618654 airhorns.org 0 9343421 2012-02-17 04:17:41
7618655 rossmark.co.uk 0 No Rank 2012-02-17 04:17:42
7618656 ustmed72.com 0 18727574 2012-02-17 04:17:43
7618657 mc.nexua.org 0 796029 2012-02-17 04:17:46
7618658 kidfacil.net 0 197282 2012-02-17 04:17:46
7618659 web-smart.dk 0 No Rank 2012-02-17 04:17:47
7618660 pconsite.org 0 25035762 2012-02-17 04:17:48
7618661 spielkurs.de 0 No Rank 2012-02-17 04:17:48
7618662 godstone.net 0 27309922 2012-02-17 04:17:50
7618663 xrbradio.com 0 22404746 2012-02-17 04:17:50
7618664 masseysrestaurant.ca 0 19485784 2012-02-17 04:17:51
7618665 bi-knoten.de 0 No Rank 2012-02-17 04:17:52
7618666 dbcovers.com 0 691761 2012-02-17 04:17:52
7618667 suranand.net 0 No Rank 2012-02-17 04:17:54
7618668 scores4u.com 0 No Rank 2012-02-17 04:17:54
7618669 wydebate.org 0 1727021 2012-02-17 04:17:56
7618670 crwltd.co.uk 0 7704551 2012-02-17 04:17:56
7618671 robertbrockchiropractic.com 0 No Rank 2012-02-17 04:17:57
7618672 mathnotes.org 0 9944688 2012-02-17 04:17:58
7618673 iemexico.net 0 No Rank 2012-02-17 04:18:00
7618674 grapeinc.com 0 5508312 2012-02-17 04:18:00
7618675 andersrad.de 0 No Rank 2012-02-17 04:18:01
7618676 rowlands-plant.co.uk 0 No Rank 2012-02-17 04:18:02
7618677 berserker.es 0 No Rank 2012-02-17 04:18:04
7618678 foxie107.com 0 No Rank 2012-02-17 04:18:04
7618679 akbayir.buderusservis.in 0 No Rank 2012-02-17 04:18:05
7618680 szkorean.com 0 No Rank 2012-02-17 04:18:06
7618681 bumteam.info 0 No Rank 2012-02-17 04:18:07
7618682 mathsmentor.org 0 No Rank 2012-02-17 04:18:08
7618683 garlund.info 0 No Rank 2012-02-17 04:18:10
7618684 matrivaniinstitute.in 0 No Rank 2012-02-17 04:18:12
7618685 matthewmanciniart.com 0 No Rank 2012-02-17 04:18:15
7618686 solafeet.com 0 11300622 2012-02-17 04:18:15
7618687 mpls2003.com 0 No Rank 2012-02-17 04:18:15
7618688 beachley.com 0 20827266 2012-02-17 04:18:16
7618689 rowlands-castle-stores.co.uk 0 No Rank 2012-02-17 04:18:21
7618690 bollinos.com 0 No Rank 2012-02-17 04:18:21
7618691 ralfthiex.de 0 16742339 2012-02-17 04:18:23
7618692 ontinter.net 0 No Rank 2012-02-17 04:18:24
7618693 maximevictor.com 0 6466596 2012-02-17 04:18:24
7618694 proamfer.com 0 No Rank 2012-02-17 04:18:26
7618695 vblog.net.br 0 2042231 2012-02-17 04:18:28
7618696 global3e.com 0 11500367 2012-02-17 04:18:29
7618697 geniushof.de 0 15588116 2012-02-17 04:18:29
7618698 mistervet.cl 0 No Rank 2012-02-17 04:18:30
7618699 waxhabit.com 0 5946215 2012-02-17 04:18:31
7618700 mayeutic.com 0 No Rank 2012-02-17 04:18:31
7618701 ncnocall.com 0 No Rank 2012-02-17 04:18:32
7618702 rpeople.biz 0 13669132 2012-02-17 04:18:34
7618703 cvetizakaz1703.front.ru 0 76422 2012-02-17 04:18:35
7618704 snackcat.com 0 No Rank 2012-02-17 04:18:35
7618705 cdsquick.com 0 No Rank 2012-02-17 04:18:36
7618706 dbwealth.com 0 No Rank 2012-02-17 04:18:36
7618707 scenex.co.uk 0 No Rank 2012-02-17 04:18:38
7618708 catra.com.br 0 1275749 2012-02-17 04:18:39
7618709 holyvibe.com 0 No Rank 2012-02-17 04:18:42
7618710 drdoonan.com 0 No Rank 2012-02-17 04:18:42
7618711 mcadventura.com 0 22849964 2012-02-17 04:18:42
7618712 weather.news.serbamasak.blogspot.com 0 No Rank 2012-02-17 04:18:43
7618713 quaser.co.uk 0 No Rank 2012-02-17 04:18:43
7618714 masr2006.com 0 No Rank 2012-02-17 04:18:44
7618715 nbkaisheng.com 0 8822418 2012-02-17 04:18:44
7618716 lrbemmel.com 0 No Rank 2012-02-17 04:18:46
7618717 vonlucke.com 0 No Rank 2012-02-17 04:18:48
7618718 entwistle.fr 0 No Rank 2012-02-17 04:18:48
7618719 vest-jord.dk 0 No Rank 2012-02-17 04:18:50
7618720 ddbox.com.br 0 14596951 2012-02-17 04:18:52
7618721 topnutri.com 0 No Rank 2012-02-17 04:18:53
7618722 vindekilde.dk 0 No Rank 2012-02-17 04:18:53
7618723 stjackson.com 0 No Rank 2012-02-17 04:18:53
7618724 ntgmdb.com 0 No Rank 2012-02-17 04:18:54
7618725 frdigital.com 0 8320852 2012-02-17 04:18:55
7618726 bruno-web.com 0 No Rank 2012-02-17 04:18:55
7618727 gerhardsen.us 0 No Rank 2012-02-17 04:18:57
7618728 mask-shop.com 0 246109 2012-02-17 04:18:58
7618729 aquaklenz.com 0 24905983 2012-02-17 04:18:59
7618730 jyingling.com 0 No Rank 2012-02-17 04:19:00
7618731 njlongsheng.cn 0 No Rank 2012-02-17 04:19:02
7618732 pohlevents.de 0 24844581 2012-02-17 04:19:03
7618733 guardaley.com 0 8754977 2012-02-17 04:19:04
7618734 indiegolf.com 0 No Rank 2012-02-17 04:19:04
7618735 bloquetes.com 0 No Rank 2012-02-17 04:19:06
7618736 dr-coerlin.de 0 No Rank 2012-02-17 04:19:06
7618737 provietek.com 0 No Rank 2012-02-17 04:19:07
7618738 mcpra.ca 0 No Rank 2012-02-17 04:19:12
7618739 phoenixduo.de 0 No Rank 2012-02-17 04:19:14
7618740 rodkhleif.com 0 20224162 2012-02-17 04:19:15
7618741 abracc.com.br 0 No Rank 2012-02-17 04:19:15
7618742 strictly4.biz 0 23034091 2012-02-17 04:19:16
7618743 ceamexico.com 0 13167363 2012-02-17 04:19:19
7618744 msasahara.com 0 No Rank 2012-02-17 04:19:20
7618745 comictech.com 0 No Rank 2012-02-17 04:19:21
7618746 reclutate.com 0 No Rank 2012-02-17 04:19:22
7618747 mdjgbyy.com 0 No Rank 2012-02-17 04:19:22
7618748 oeltechnik.com.cn 0 No Rank 2012-02-17 04:19:22
7618749 brighteyes.dk 0 22423117 2012-02-17 04:19:23
7618750 hurengine.com 0 No Rank 2012-02-17 04:19:24
7618751 pinanonas.com 0 No Rank 2012-02-17 04:19:25
7618752 bbs.showcome.com 0 5976330 2012-02-17 04:19:26
7618753 carliarch.com 0 No Rank 2012-02-17 04:19:27
7618754 mediarift.net 0 15417935 2012-02-17 04:19:29
7618755 mdx.com.my 0 22879350 2012-02-17 04:19:29
7618756 dackelhaus.de 0 No Rank 2012-02-17 04:19:30
7618757 coldtorch.com 0 No Rank 2012-02-17 04:19:30
7618758 outnumbrd.com 0 No Rank 2012-02-17 04:19:30
7618759 zettel.com.mx 0 No Rank 2012-02-17 04:19:31
7618760 grupoauro.com 0 13536461 2012-02-17 04:19:34
7618761 benjaplast.dk 0 No Rank 2012-02-17 04:19:35
7618762 oh-time.com 0 No Rank 2012-02-17 04:19:35
7618763 palefella.com 0 No Rank 2012-02-17 04:19:36
7618764 mebelspb.net 0 3651765 2012-02-17 04:19:37
7618765 dnc-max.co.uk 0 No Rank 2012-02-17 04:19:38
7618766 smsservice.dk 0 No Rank 2012-02-17 04:19:38
7618767 kuhinje.co.rs 0 3954476 2012-02-17 04:19:39
7618768 pacific-garments.com 0 No Rank 2012-02-17 04:19:41
7618769 twirlyups.com 0 No Rank 2012-02-17 04:19:42
7618770 haluch.com.br 0 No Rank 2012-02-17 04:19:44
7618771 luksorweb.com 0 No Rank 2012-02-17 04:19:44
7618772 fflittner.com 0 25205642 2012-02-17 04:19:45
7618773 caroyo.com.br 0 6763062 2012-02-17 04:19:49
7618774 medicalalley.org 0 No Rank 2012-02-17 04:19:49
7618775 bikemural.org 0 13785745 2012-02-17 04:19:50
7618776 zmidia.com.br 0 4836525 2012-02-17 04:19:51
7618777 carat-edv.com 0 No Rank 2012-02-17 04:19:52
7618778 peonyfns.com 0 No Rank 2012-02-17 04:19:52
7618779 leiria.com.br 0 No Rank 2012-02-17 04:19:54
7618780 atrupe.com.br 0 No Rank 2012-02-17 04:19:55
7618781 alphaalec.com 0 No Rank 2012-02-17 04:19:55
7618782 medico.com.my 0 No Rank 2012-02-17 04:19:56
7618783 rostrup-by.dk 0 No Rank 2012-02-17 04:19:56
7618784 nybos-auto.dk 0 No Rank 2012-02-17 04:19:59
7618785 medicol.ph 0 5383557 2012-02-17 04:20:00
7618786 lotus-foto.dk 0 No Rank 2012-02-17 04:20:00
7618787 lumini.art.br 0 14614870 2012-02-17 04:20:00
7618788 privateislandrentals.com 0 No Rank 2012-02-17 04:20:03
7618789 stormhold.net 0 No Rank 2012-02-17 04:20:03
7618790 thedishes.net 0 No Rank 2012-02-17 04:20:03
7618791 tonicgames.dk 0 14026714 2012-02-17 04:20:03
7618792 pcatec.com.br 0 No Rank 2012-02-17 04:20:04
7618793 schwanburg.de 0 No Rank 2012-02-17 04:20:06
7618794 stigfeldt.com 0 No Rank 2012-02-17 04:20:09
7618795 codael.com.br 0 4734269 2012-02-17 04:20:17
7618796 megaigogakuin.com 0 No Rank 2012-02-17 04:20:17
7618797 computrex.net 0 No Rank 2012-02-17 04:20:18
7618798 megamost.ru 0 No Rank 2012-02-17 04:20:18
7618799 jobmix.com.br 0 496721 2012-02-17 04:20:18
7618800 janseerup.com 0 No Rank 2012-02-17 04:20:19
7618801 elmesteren.dk 0 No Rank 2012-02-17 04:20:21
7618802 megassena.com 0 No Rank 2012-02-17 04:20:23
7618803 pioneergift.com.cn 0 No Rank 2012-02-17 04:20:24
7618804 wedefined.org 0 No Rank 2012-02-17 04:20:26
7618805 megryanpictures.com 0 No Rank 2012-02-17 04:20:27
7618806 247shield.com 0 14723938 2012-02-17 04:20:28
7618807 megumispa.com 0 No Rank 2012-02-17 04:20:30
7618808 jack-cole.com 0 22676981 2012-02-17 04:20:32
7618809 faridnoie.com 0 No Rank 2012-02-17 04:20:33
7618810 awrdesign.com 0 15941027 2012-02-17 04:20:34
7618811 apuamaunb.com 0 No Rank 2012-02-17 04:20:34
7618812 mc-avalons.de 0 No Rank 2012-02-17 04:20:35
7618813 clearlime.com 0 19755953 2012-02-17 04:20:36
7618814 dbarbuzzi.com 0 23984262 2012-02-17 04:20:38
7618815 fbcelkton.com 0 No Rank 2012-02-17 04:20:39
7618816 watchabdc.com 0 No Rank 2012-02-17 04:20:40
7618817 dyhrhagen.com 0 21929158 2012-02-17 04:20:40
7618818 meinplace.com 0 7671625 2012-02-17 04:20:40
7618819 meguro.com.my 0 No Rank 2012-02-17 04:20:40
7618820 crazyreyn.com 0 17758794 2012-02-17 04:20:43
7618821 506realty.com 0 No Rank 2012-02-17 04:20:44
7618822 ilovetata.com 0 No Rank 2012-02-17 04:20:45
7618823 hotelcasavelas.com.mx 0 156794 2012-02-17 04:20:47
7618824 qzhua.com 0 No Rank 2012-02-17 04:20:48
7618825 rodkhleif.org 0 No Rank 2012-02-17 04:20:49
7618826 nutrileve.com 0 No Rank 2012-02-17 04:20:49
7618827 rodkhleif.net 0 No Rank 2012-02-17 04:20:51
7618828 kittykall.com 0 No Rank 2012-02-17 04:20:52
7618829 taomassage.dk 0 No Rank 2012-02-17 04:20:52
7618830 pyba.com 0 No Rank 2012-02-17 04:20:55
7618831 floridapi.org 0 No Rank 2012-02-17 04:20:55
7618832 pagara.com.br 0 12775886 2012-02-17 04:20:55
7618833 honorkids.com 0 7863715 2012-02-17 04:20:56
7618834 cljuridico.com 0 No Rank 2012-02-17 04:20:58
7618835 claybarker.com 0 No Rank 2012-02-17 04:20:59
7618836 altclothes.com 0 No Rank 2012-02-17 04:21:00
7618837 mattlavoie.com 0 No Rank 2012-02-17 04:21:00
7618838 contyquim.com 0 12744025 2012-02-17 04:21:00
7618839 elissagore.com 0 23748981 2012-02-17 04:21:01
7618840 merchantmotion.com 0 No Rank 2012-02-17 04:21:01
7618841 mercurisolutions.com 0 No Rank 2012-02-17 04:21:03
7618842 steelpoets.com 0 No Rank 2012-02-17 04:21:05
7618843 rahrahties.com 0 18512018 2012-02-17 04:21:05
7618844 bimroadmap.com 0 22018265 2012-02-17 04:21:05
7618845 p900themes.com 0 No Rank 2012-02-17 04:21:06
7618846 macedex.com.br 0 No Rank 2012-02-17 04:21:11
7618847 brasilinfo.net 0 9961914 2012-02-17 04:21:13
7618848 seatcleaner.de 0 No Rank 2012-02-17 04:21:16
7618849 zahirtales.com 0 11760932 2012-02-17 04:21:16
7618850 schilltron.com 0 No Rank 2012-02-17 04:21:18
7618851 meridian-medical.com 0 9772691 2012-02-17 04:21:19
7618852 avwagshurst.de 0 No Rank 2012-02-17 04:21:19
7618853 abbanet.org.br 0 No Rank 2012-02-17 04:21:19
7618854 raqconline.com 0 No Rank 2012-02-17 04:21:20
7618855 randomspin.net 0 No Rank 2012-02-17 04:21:21
7618856 sarahbbetz.com 0 No Rank 2012-02-17 04:21:23
7618857 skip-fresh.com 0 No Rank 2012-02-17 04:21:24
7618858 merslearningcenter.com 0 No Rank 2012-02-17 04:21:25
7618859 meridianworld.com.my 0 No Rank 2012-02-17 04:21:25
7618860 arsarcanum.com 0 5615688 2012-02-17 04:21:26
7618861 dax-consult.dk 0 No Rank 2012-02-17 04:21:30
7618862 wolfundlamm.de 0 4124435 2012-02-17 04:21:32
7618863 renxiuhua.com 0 No Rank 2012-02-17 04:21:33
7618864 squidlover.com 0 No Rank 2012-02-17 04:21:34
7618865 voor5piek.nl 0 No Rank 2012-02-17 04:21:34
7618866 idibicamps.com 0 15193724 2012-02-17 04:21:35
7618867 bwebhosted.net 0 No Rank 2012-02-17 04:21:35
7618868 go-squared.com 0 No Rank 2012-02-17 04:21:36
7618869 mikedroste.com 0 No Rank 2012-02-17 04:21:37
7618870 joeyschwab.com 0 15274105 2012-02-17 04:21:38
7618871 maskinlager.dk 0 No Rank 2012-02-17 04:21:41
7618872 22stives.co.uk 0 18263963 2012-02-17 04:21:42
7618873 edwardcope.com 0 9861748 2012-02-17 04:21:46
7618874 gaiacursos.com 0 12520551 2012-02-17 04:21:47
7618875 assetprinc.com 0 No Rank 2012-02-17 04:21:49
7618876 convatec.com.tr 0 27669331 2012-02-17 04:21:51
7618877 marelactam.org 0 No Rank 2012-02-17 04:21:53
7618878 siregas.com.br 0 26980274 2012-02-17 04:21:53
7618879 petsmatter.com 0 No Rank 2012-02-17 04:21:53
7618880 zapthink.com 0 2588141 2012-02-17 04:21:54
7618881 vespamarin.com 0 No Rank 2012-02-17 04:21:55
7618882 thomas-fox.org 0 No Rank 2012-02-17 04:21:55
7618883 roadmapchina.com 0 14250388 2012-02-17 04:21:56
7618884 bcbfinance.com 0 No Rank 2012-02-17 04:21:56
7618885 coos.cn 0 No Rank 2012-02-17 04:21:57
7618886 fixinfo.com.br 0 No Rank 2012-02-17 04:21:57
7618887 carmelcttp.com 0 21985136 2012-02-17 04:21:59
7618888 saitexture.com 0 5596794 2012-02-17 04:22:00
7618889 newsqueens.net 0 No Rank 2012-02-17 04:22:01
7618890 julebazaren.dk 0 No Rank 2012-02-17 04:22:03
7618891 video-mall.net 0 No Rank 2012-02-17 04:22:03
7618892 revzonconsulting.com 0 No Rank 2012-02-17 04:22:05
7618893 cascadazul.com 0 No Rank 2012-02-17 04:22:05
7618894 tara-trees.org 0 No Rank 2012-02-17 04:22:05
7618895 globalair.aero 0 27325312 2012-02-17 04:22:06
7618896 michelleobamapictures.com 0 No Rank 2012-02-17 04:22:12
7618897 stofgaarden.dk 0 No Rank 2012-02-17 04:22:15
7618898 creativejobpartner.com 0 No Rank 2012-02-17 04:22:16
7618899 tiinatervo.com 0 No Rank 2012-02-17 04:22:17
7618900 lilesacres.com 0 No Rank 2012-02-17 04:22:19
7618901 cg-loghomes.dk 0 No Rank 2012-02-17 04:22:19
7618902 scuderia3a.com 0 No Rank 2012-02-17 04:22:22
7618903 pukapukado.com 0 No Rank 2012-02-17 04:22:25
7618904 daisyroots.net 0 22997617 2012-02-17 04:22:26
7618905 chiarasays.com 0 1058370 2012-02-17 04:22:27
7618906 causacomun.com 0 No Rank 2012-02-17 04:22:27
7618907 gemperfilm.com 0 No Rank 2012-02-17 04:22:30
7618908 milan.jero.net 0 2836997 2012-02-17 04:22:30
7618909 blaze-auto.com 0 No Rank 2012-02-17 04:22:33
7618910 tackupgame.com 0 9332010 2012-02-17 04:22:33
7618911 aumuaamata.com 0 No Rank 2012-02-17 04:22:34
7618912 blog.nexua.org 0 796029 2012-02-17 04:22:35
7618913 mijasrestaurant.org 0 13337688 2012-02-17 04:22:36
7618914 rootsgymnastics.com 0 5971686 2012-02-17 04:22:37
7618915 a-meldgaard.dk 0 No Rank 2012-02-17 04:22:37
7618916 milehiaussies.com 0 No Rank 2012-02-17 04:22:38
7618917 linco-fragt.dk 0 No Rank 2012-02-17 04:22:39
7618918 dessine.com.br 0 10760726 2012-02-17 04:22:39
7618919 bar-trivia.com 0 No Rank 2012-02-17 04:22:39
7618920 epipolaris.com 0 No Rank 2012-02-17 04:22:40
7618921 josefschoop.de 0 No Rank 2012-02-17 04:22:40
7618922 davidlimmd.com 0 15761189 2012-02-17 04:22:42
7618923 md-glamour.com 0 No Rank 2012-02-17 04:22:43
7618924 omegagames.net 0 No Rank 2012-02-17 04:22:45
7618925 shukraland.com 0 1719146 2012-02-17 04:22:45
7618926 flordealoe.com 0 4169383 2012-02-17 04:22:47
7618927 imagioneer.com 0 No Rank 2012-02-17 04:22:47
7618928 wiki.nexua.org 0 796029 2012-02-17 04:22:47
7618929 mimar.ca 0 No Rank 2012-02-17 04:22:47
7618930 transur.com.br 0 11947373 2012-02-17 04:22:49
7618931 carstennash.dk 0 No Rank 2012-02-17 04:22:51
7618932 minakoe.jp 0 31110 2012-02-17 04:22:52
7618933 mindofchristmin.com 0 No Rank 2012-02-17 04:22:56
7618934 movieshots.diandian.com 0 3318 2012-02-17 04:22:56
7618935 almondvale.com 0 No Rank 2012-02-17 04:22:56
7618936 frankypaco.com 0 No Rank 2012-02-17 04:22:56
7618937 wendenburg.biz 0 No Rank 2012-02-17 04:22:58
7618938 carnetlame.org 0 No Rank 2012-02-17 04:22:58
7618939 ojosdemako.com 0 No Rank 2012-02-17 04:22:59
7618940 momandmoon.com 0 6409591 2012-02-17 04:23:00
7618941 minglee-stationery.com 0 No Rank 2012-02-17 04:23:01
7618942 mondaynightgospel.com 0 15520041 2012-02-17 04:23:02
7618943 hunderasse.biz 0 No Rank 2012-02-17 04:23:02
7618944 mrbare.diandian.com 0 3318 2012-02-17 04:23:04
7618945 backlinks.asrclub.net 0 2338078 2012-02-17 04:23:05
7618946 cupmycakez.com 0 No Rank 2012-02-17 04:23:07
7618947 myqueenspa.com 0 No Rank 2012-02-17 04:23:15
7618948 goeuropass.com 0 No Rank 2012-02-17 04:23:16
7618949 bookpepper.com 0 No Rank 2012-02-17 04:23:17
7618950 minimini-east.jp 0 2805193 2012-02-17 04:23:18
7618951 portalsatc.com 0 1107721 2012-02-17 04:23:20
7618952 ngmimports.com 0 No Rank 2012-02-17 04:23:21
7618953 sngbarratt.net 0 No Rank 2012-02-17 04:23:23
7618954 topcoins.co.uk 0 No Rank 2012-02-17 04:23:23
7618955 hi-lucky13.com 0 No Rank 2012-02-17 04:23:25
7618956 tekkemanden.dk 0 No Rank 2012-02-17 04:23:25
7618957 aibasculas.com 0 No Rank 2012-02-17 04:23:27
7618958 mrchildren.jpn.org 0 4329 2012-02-17 04:23:28
7618959 kevinsweet.com 0 8703563 2012-02-17 04:23:30
7618960 colourcode.net 0 4196035 2012-02-17 04:23:30
7618961 souteen.com.br 0 No Rank 2012-02-17 04:23:31
7618962 ludicoperu.com 0 No Rank 2012-02-17 04:23:33
7618963 colneypark.com 0 No Rank 2012-02-17 04:23:33
7618964 dymarathon.com 0 No Rank 2012-02-17 04:23:34
7618965 servecolin.com 0 No Rank 2012-02-17 04:23:35
7618966 hawaiigaga.com 0 521061 2012-02-17 04:23:38
7618967 modernmarkup.nl 0 No Rank 2012-02-17 04:23:39
7618968 sindalmarked.dk 0 No Rank 2012-02-17 04:23:40
7618969 casinos-in-california.com 0 13156967 2012-02-17 04:23:41
7618970 dc-container.dk 0 No Rank 2012-02-17 04:23:43
7618971 natula-batik.com 0 No Rank 2012-02-17 04:23:43
7618972 acentoch.com.mx 0 No Rank 2012-02-17 04:23:43
7618973 sosfarma.com.br 0 5350220 2012-02-17 04:23:45
7618974 devridaim.org 0 No Rank 2012-02-17 04:23:45
7618975 f1speedweek.com 0 No Rank 2012-02-17 04:23:47
7618976 nifong.net 0 No Rank 2012-02-17 04:23:47
7618977 muveforward.com 0 No Rank 2012-02-17 04:23:47
7618978 tomboysclub.com 0 No Rank 2012-02-17 04:23:50
7618979 wfh-success.net 0 No Rank 2012-02-17 04:23:51
7618980 thehallmans.net 0 No Rank 2012-02-17 04:23:52
7618981 bioqualy.com.br 0 No Rank 2012-02-17 04:23:54
7618982 ihsaaplayon.com 0 No Rank 2012-02-17 04:23:55
7618983 davidblacks.com 0 No Rank 2012-02-17 04:23:57
7618984 sv-games.com 0 13256744 2012-02-17 04:23:59
7618985 nightsky.diandian.com 0 3318 2012-02-17 04:24:01
7618986 voodoobeats.net 0 No Rank 2012-02-17 04:24:02
7618987 rote-antifa.org 0 10534533 2012-02-17 04:24:03
7618988 weldriteinc.com 0 No Rank 2012-02-17 04:24:04
7618989 suzantur.com.br 0 10631152 2012-02-17 04:24:05
7618990 starboys.com.br 0 No Rank 2012-02-17 04:24:06
7618991 cl-computer.org 0 No Rank 2012-02-17 04:24:08
7618992 miu-jewellery.com 0 9540347 2012-02-17 04:24:12
7618993 quickgrillz.com 0 18083563 2012-02-17 04:24:15
7618994 mjcsa.ca 0 No Rank 2012-02-17 04:24:15
7618995 nhlandesign.com 0 No Rank 2012-02-17 04:24:15
7618996 zndpecas.com.br 0 No Rank 2012-02-17 04:24:15
7618997 mlmsuccessformulaonline.com 0 No Rank 2012-02-17 04:24:19
7618998 mv-gutenzell.de 0 No Rank 2012-02-17 04:24:19
7618999 mobil-stage.com 0 15873309 2012-02-17 04:24:20